This is the latest recevied weather packets stored in our database for station/object KC1TLF-15. If no packets are shown the sender has not sent any weather packets the latest 10 day(s).
| Time | Temp. | Humidity | Pressure | Rain* | Wind** | Luminosity | Snow |
|---|---|---|---|---|---|---|---|
| 1777959071 | 11.11° C | 73% | 1018.2 hPa | 0 mm | 0 m/s | 0 W/m² | - |
| 1777958471 | 11.67° C | 71% | 1018.2 hPa | 0 mm | 0 m/s | 0 W/m² | - |
| 1777957870 | 11.67° C | 70% | 1018.3 hPa | 0 mm | 0 m/s | 0 W/m² | - |
| 1777957270 | 11.67° C | 69% | 1018.2 hPa | 0 mm | 0 m/s | 0 W/m² | - |
| 1777956671 | 12.22° C | 68% | 1018.3 hPa | 0 mm | 0 m/s | 0 W/m² | - |
| 1777956071 | 12.22° C | 67% | 1018.4 hPa | 0 mm | 0 m/s | 0 W/m² | - |
| 1777955470 | 12.22° C | 66% | 1018.2 hPa | 0 mm | 0 m/s | 0 W/m² | - |
| 1777954869 | 12.22° C | 66% | 1018.1 hPa | 0 mm | 0 m/s | 0 W/m² | - |
| 1777954269 | 12.78° C | 65% | 1018.1 hPa | 0 mm | 0 m/s | 0 W/m² | - |
| 1777953669 | 12.78° C | 64% | 1017.9 hPa | 0 mm | 0 m/s | 0 W/m² | - |
| 1777953070 | 12.78° C | 64% | 1018.1 hPa | 0 mm | 0 m/s | 0 W/m² | - |
| 1777952471 | 12.78° C | 63% | 1017.9 hPa | 0 mm | 0 m/s | 0 W/m² | - |
| 1777951871 | 13.33° C | 62% | 1017.9 hPa | 0 mm | 0 m/s | 0 W/m² | - |
| 1777951271 | 13.89° C | 60% | 1017.9 hPa | 0 mm | 0 m/s | 0 W/m² | - |
| 1777950671 | 13.89° C | 59% | 1017.9 hPa | 0 mm | 0 m/s | 0 W/m² | - |
| 1777950070 | 13.89° C | 58% | 1017.8 hPa | 0 mm | 0 m/s | 0 W/m² | - |
| 1777949471 | 14.44° C | 57% | 1017.7 hPa | 0 mm | 0 m/s | 0 W/m² | - |
| 1777948870 | 15° C | 56% | 1017.8 hPa | 0 mm | 0 m/s | 0 W/m² | - |
| 1777948270 | 14.44° C | 56% | 1018 hPa | 0 mm | 0 m/s | 0 W/m² | - |
| 1777947671 | 14.44° C | 56% | 1018.1 hPa | 0 mm | 0.45 m/s, 316° | 0 W/m² | - |
| 1777947070 | 15° C | 56% | 1018 hPa | 0 mm | 0.45 m/s, 321° | 0 W/m² | - |
| 1777946471 | 15° C | 56% | 1017.9 hPa | 0 mm | 0 m/s | 0 W/m² | - |
| 1777945870 | 15.56° C | 54% | 1017.9 hPa | 0 mm | 0 m/s | 0 W/m² | - |
| 1777945270 | 15.56° C | 54% | 1017.7 hPa | 0 mm | 0 m/s | 0 W/m² | - |
| 1777944669 | 15.56° C | 53% | 1017.8 hPa | 0 mm | 0.45 m/s, 4° | 0 W/m² | - |
* Rain latest hour (hover to see other rain measurements)
** Current wind speed in m/s (hover to see current wind gust speed)